ATLAS 5 CENTAUR DEB, 46485

Orbit data source: Space-Track

ATLAS 5 CENTAUR DEB, 46485 is space debris in HEO originally from a launch on Wed, 17 Oct 2018 UTC launched from the Air Force Eastern Test Range (AFETR). Debris objects in space refer to the collection of defunct objects orbiting the Earth. Examples of debris include non-operational satellites, rocket bodies, and fragments generated from explosions, collisions, or faulty payload assembly.

Loading next visibility...
Identifier
46485, 2018-079BY
Orbit
HEO
Last TLE update
1 day ago
Origin
Flag of USUnited Launch Alliance/Lockheed Martin (US)
Manufacturer
ULA Decatur
Mission
Spacecraft
Bus & Motor
Unknown
Mass
Unknown
Launch date (UTC)
2018-10-17 (7 years ago)
Launch vehicle
Unknown
Launch site
Air Force Eastern Test Range (AFETR)
Object type
Payload
Rocket body
Debris
Shape & HBR
Unknown
Radar Cross Section
RCS unknown

Expand to show TLE details & history

TLE from 1 day ago
0 ATLAS 5 CENTAUR DEB
1 46485U 18079BY  25181.01783717 -.00000121  00000-0  00000-0 0  9998
2 46485  13.2499  19.1768 4507895 355.6972   1.4679  2.01607253 26757
Epoch: 2025-06-30T00:25Z
TLE epoch observation values (Epoch: 2025-06-30T00:25:41.131Z)
Latitude
0.00009°
Longitude
94.43043°
Altitude
8,195.511 km
Speed
6.296 km/s
True Right ascension
01h 16m 44s
True Declination
0° 00' 00"
Sunlit
Object was in daylight at epoch
Visualization orbit readout
Latitude
-9.44216°
Longitude
-40.9001°
Altitude
23,422.543 km
Speed
3.419 km/s
Apparent Right ascension
15h 37m 30s
Apparent Declination
-17° 35' 15"
Sunlit
Object is in daylight
Visualization observer readout
Local Sidereal Time
21:02:10
Azimuth
250.927° W
Elevation
-4.682°
Doppler factor
1
Orbital elements
Apogee altitude
32,025.389 km
Perigee altitude
8,159.892 km
Semi-major axis
26,470.778 km
Eccentricity
0.45079
Inclination
13.2499°
RAAN
19.1768°
Arg. of periapsis
355.6972°
True anomaly
Unknown
Mean anomaly
1.4679°
Eccentric anomaly
Unknown
Mean motion
0.50396 °/min
Orbital period
714.35 mins
BSTAR
0
Loading maneuver chart data...
Loading SW <> Apogee altitude chart data...

ATLAS 5 CENTAUR DEB Visibility forecast

Observer location: undefined°, undefined°

Span
Click to sort rows by Start time (UTC) header in descending order
Start Az.
Max El. time (UTC)
Max El. Az.
Max El.
End time (UTC)
End Az.
74 mins2025-07-01 11:20:54.034Z213.377° SW2025-07-01 12:00:54.034Z160.522° S20.491°2025-07-01 12:34:54.034Z109.889° ESE
138 mins2025-07-02 02:40:54.034Z265.11° W2025-07-02 03:39:54.034Z260.333° W12.356°2025-07-02 04:58:54.034Z257.832° W
|